Wind_Speed
36 35 36 35 35 36 37 38 39 38 38 35 36 36 35 35 35 34 34 35 35 34 34 35 34 34 34 34 34 34 33 33 33 33 33 32 32 33 33 33 33 32 31 31
36 36 37 37 36 36 37 38 39 39 38 37 38 38 38 37 36 35 34 34 34 34 35 35 35 35 35 35 35 35 34 33 33 33 33 33 33 33 33 33 33 32 31 31
36 35 37 37 35 37 38 39 39 39 38 39 39 39 39 39 38 38 37 36 35 35 36 36 36 36 36 35 35 35 35 34 34 34 34 34 34 34 34 33 34 34 33 33
36 35 36 34 34 35 37 39 40 40 39 39 40 40 40 40 40 40 39 38 38 37 36 37 37 37 36 35 35 35 35 35 35 36 36 35 34 34 34 34 35 35 34 34
35 36 35 33 33 34 36 37 39 40 40 40 40 41 40 41 41 41 40 40 40 40 39 38 38 37 37 36 35 35 35 36 36 36 36 35 35 35 35 35 35 35 35 34
34 35 34 32 32 33 36 36 36 38 39 40 41 41 40 41 41 41 41 40 40 40 39 39 39 38 38 37 36 36 36 36 36 36 35 36 36 35 35 36 36 35 35 35
34 35 34 33 33 33 34 35 35 37 38 39 40 40 40 40 41 42 41 41 40 39 39 39 39 39 38 38 38 37 36 36 36 35 35 36 36 36 36 36 36 36 36 36
34 34 33 33 33 34 35 35 35 36 37 37 38 39 39 40 40 41 41 41 40 40 39 39 39 39 39 39 39 38 37 37 37 36 36 36 36 36 36 36 36 36 37 37
33 33 33 33 34 35 36 37 37 36 37 37 38 38 39 39 39 40 40 40 40 40 40 39 39 40 39 39 39 39 38 37 37 37 37 36 36 36 35 35 36 36 35 34
33 33 33 34 35 36 37 37 37 37 37 38 38 38 38 38 38 38 39 39 40 40 39 39 38 38 38 38 39 39 38 37 37 36 36 35 35 35 34 34 34 34 34 34
34 34 34 34 35 36 37 37 37 37 37 37 37 36 36 36 36 36 36 36 37 37 37 37 36 35 36 37 38 38 38 38 37 36 35 35 34 34 34 33 33 33 34 33
33 34 34 34 35 35 35 35 35 34 34 33 34 34 34 34 34 33 34 34 34 34 34 34 34 34 34 35 35 36 36 36 35 35 34 34 34 34 34 34 33 33 33 33
32 32 33 33 33 33 33 33 33 33 33 32 33 33 33 33 32 32 32 32 32 33 33 33 33 33 33 34 34 34 34 34 34 34 33 33 33 33 34 34 34 33 33 33
31 31 32 32 32 31 32 32 32 31 32 32 31 31 31 31 31 31 31 31 31 31 32 32 31 31 32 32 33 33 32 32 33 32 32 33 33 33 33 33 34 34 34 34
29 30 29 29 29 30 30 30 30 30 30 30 30 29 29 29 29 29 29 30 29 30 30 30 30 30 30 31 31 31 31 32 31 31 32 32 32 33 33 34 34 34 34 34
27 28 28 28 27 27 28 28 28 28 29 28 28 29 28 28 28 27 28 28 28 28 28 29 29 28 28 28 29 29 30 30 31 31 31 31 32 32 33 33 33 33 33 32
26 26 26 25 25 25 25 26 26 27 27 27 27 27 27 27 26 26 26 26 27 27 27 27 27 27 26 26 26 26 27 28 29 30 30 30 31 31 31 31 31 31 31 31
25 25 25 24 23 22 23 23 23 24 25 25 25 26 26 26 26 25 25 25 25 25 25 25 25 26 25 25 25 25 25 26 27 27 27 28 29 29 29 29 30 30 30 31
23 23 23 22 22 21 20 20 20 21 21 22 22 23 24 24 24 24 24 24 23 23 23 23 24 25 25 25 25 25 25 25 26 26 27 27 28 28 28 29 29 29 29 30
22 21 20 20 20 20 20 20 19 19 19 19 19 20 21 22 23 23 23 22 22 21 22 22 23 23 24 24 24 24 24 25 26 26 27 26 27 27 28 28 29 29 29 29
20 19 19 18 19 19 19 18 18 18 18 17 17 18 18 19 20 21 21 21 21 21 21 22 22 22 23 23 23 23 24 24 25 26 26 26 26 27 27 28 28 28 28 28
19 19 18 18 18 18 18 18 18 17 16 16 16 16 16 17 17 19 20 20 21 21 22 22 22 22 22 23 23 24 24 25 25 25 25 26 26 26 27 27 27 27 27 27
18 18 18 18 17 17 16 16 16 15 14 14 14 14 15 15 16 16 17 19 19 20 21 21 22 22 22 23 23 24 24 24 25 25 25 25 25 26 25 25 25 25 26 26
17 17 17 16 16 16 16 15 15 14 14 14 13 13 14 14 15 15 16 17 17 18 19 20 21 21 21 21 22 22 23 24 24 24 25 25 25 24 24 24 24 24 25 25
16 16 16 16 15 15 15 15 14 14 14 14 14 14 14 14 15 15 16 16 17 18 18 19 19 19 20 20 21 21 22 22 22 22 23 23 23 23 23 23 24 24 24 24
16 16 16 15 15 15 14 14 14 14 14 14 13 13 14 14 15 16 16 17 17 18 18 18 19 19 19 20 20 20 20 21 21 21 21 22 22 22 23 23 23 23 23 23
16 16 16 15 15 15 14 14 14 14 14 14 14 15 15 15 15 16 16 17 17 17 17 18 18 19 20 20 20 20 20 20 20 20 20 21 22 22 22 23 23 22 23 23
Wind_Direction
276 274 271 267 263 259 259 259 260 260 261 262 261 261 260 261 261 260 260 259 259 260 261 261 261 260 260 261 260 261 262 262 263 264 266 267 267 268 268 269 269 269 271 271
276 273 271 268 264 261 260 259 260 260 259 259 260 261 261 261 262 261 261 259 258 259 260 260 261 260 260 260 260 260 261 262 263 264 265 266 267 268 268 267 268 269 271 272
277 274 271 269 266 263 262 261 261 261 260 258 258 260 262 261 260 261 260 259 258 259 259 260 260 260 259 259 259 260 261 262 262 263 265 265 266 267 268 267 267 268 270 273
278 275 272 272 268 266 265 264 262 262 261 260 259 259 261 262 262 261 261 260 259 259 259 259 260 260 260 260 260 261 261 261 262 264 265 265 265 266 267 267 267 268 270 272
278 277 275 271 269 268 266 264 263 263 262 261 260 259 260 262 262 262 262 261 260 260 259 258 258 259 259 260 261 261 261 261 262 263 263 263 264 266 267 268 268 268 270 272
277 277 276 275 272 270 268 267 266 265 264 263 263 262 261 261 261 261 261 260 260 260 259 258 257 258 258 258 260 261 261 261 262 262 262 262 264 266 267 267 267 268 269 271
276 276 275 274 273 272 271 270 267 265 265 265 265 265 263 261 261 261 261 260 259 259 258 259 258 258 258 258 259 261 260 261 261 262 262 263 264 265 266 267 268 268 269 271
275 276 276 275 274 272 271 270 269 267 267 266 265 265 265 263 262 261 260 259 259 257 257 258 258 258 258 258 258 259 260 261 261 262 264 264 265 265 266 267 268 269 270 271
276 276 275 274 274 274 273 270 269 268 268 268 267 266 266 265 264 262 260 258 257 257 257 257 258 258 256 255 257 258 259 261 261 262 264 265 265 265 266 267 269 269 270 270
275 275 275 274 273 273 273 273 272 271 270 269 269 268 267 266 265 264 262 260 259 259 259 259 258 257 255 254 255 256 258 259 260 261 262 264 265 265 265 266 268 269 269 270
276 276 275 276 275 274 273 273 273 273 272 270 269 268 267 267 265 263 262 260 260 260 259 259 258 256 255 255 254 256 257 258 259 261 262 263 265 265 264 265 266 267 268 269
278 278 277 277 276 276 275 275 274 273 271 271 270 268 267 266 265 263 262 261 260 259 258 257 256 256 256 256 256 256 256 257 258 259 261 262 263 264 264 264 265 266 268 269
280 279 278 278 277 276 276 276 275 274 273 271 269 267 266 265 264 262 262 261 260 259 258 257 256 255 255 255 255 254 255 256 257 259 259 261 262 263 264 264 264 265 267 268
280 281 280 279 278 278 277 276 275 273 273 271 269 268 266 265 264 263 262 262 261 260 258 256 255 256 256 255 253 254 255 256 257 258 259 261 262 264 264 264 264 264 265 266
282 282 281 282 281 280 279 278 275 273 272 272 269 267 266 264 263 262 261 261 261 259 256 254 254 255 256 255 253 255 255 255 257 258 260 262 263 263 263 264 264 264 265 266
282 283 285 286 285 283 281 279 276 273 271 271 269 266 264 263 262 260 260 259 259 258 255 253 252 254 254 254 254 255 255 255 256 258 260 262 263 264 264 264 264 265 265 266
283 284 284 284 285 284 282 280 278 275 272 270 268 265 262 261 260 259 258 258 258 257 256 253 251 252 252 253 255 255 255 256 257 258 260 261 262 263 264 264 265 264 264 265
285 285 285 286 288 287 284 282 281 278 276 272 268 264 260 259 258 257 256 256 255 255 255 253 251 250 251 254 256 257 257 258 259 260 261 261 262 263 263 264 265 264 264 264
284 286 287 287 287 287 288 289 287 283 279 274 268 264 260 257 255 255 254 253 253 253 253 253 251 249 250 252 255 257 259 260 262 262 262 262 261 262 263 264 265 264 264 265
283 285 286 288 287 287 289 290 291 289 283 277 272 266 262 258 255 252 253 253 252 252 251 252 252 252 252 253 255 257 259 260 261 263 263 262 262 263 265 265 266 266 266 266
282 284 285 286 287 287 288 289 292 292 286 280 274 268 263 259 256 253 252 252 253 252 252 253 253 253 253 254 255 257 259 261 262 264 264 263 263 264 266 266 267 266 266 266
281 283 283 284 287 287 286 288 290 290 286 281 276 270 265 260 258 256 255 255 256 255 256 256 256 255 255 256 257 258 260 261 261 262 262 264 265 265 266 265 265 265 266 267
284 284 283 284 285 287 287 288 288 287 285 282 278 271 266 263 262 261 260 260 259 259 260 260 259 258 258 259 260 262 262 261 261 261 262 264 265 264 264 264 265 266 267 267
285 284 283 283 283 284 286 286 285 284 283 282 278 275 271 266 263 263 264 264 263 263 264 264 262 260 260 261 261 262 261 260 260 261 263 263 263 264 264 264 264 265 266 267
284 284 283 282 281 282 282 283 284 284 281 281 280 277 272 267 266 267 268 268 268 269 267 265 262 260 261 262 262 262 263 262 261 261 261 261 261 262 263 263 265 266 268 268
283 283 282 280 278 278 278 279 281 281 281 280 280 278 275 271 269 269 269 271 273 273 269 265 261 261 262 263 263 264 264 262 261 261 261 260 261 262 263 265 266 267 269 270
282 282 280 278 276 275 276 276 277 279 279 279 278 277 276 275 274 272 272 273 274 273 268 264 261 262 262 263 263 262 263 262 262 262 262 262 263 264 264 265 265 266 268 270
Height
5601 5600 5599 5599 5600 5600 5599 5600 5601 5603 5604 5606 5605 5605 5606 5606 5606 5607 5607 5608 5609 5610 5611 5612 5613 5614 5615 5616 5617 5618 5619 5619 5620 5620 5621 5621 5621 5621 5621 5620 5620 5619 5619 5618
5590 5589 5587 5587 5589 5589 5589 5589 5589 5590 5592 5594 5593 5593 5594 5595 5596 5596 5597 5598 5598 5599 5600 5601 5602 5604 5605 5606 5607 5608 5609 5610 5610 5611 5611 5611 5611 5611 5611 5611 5610 5610 5610 5609
5579 5578 5575 5576 5579 5578 5578 5578 5578 5579 5582 5582 5582 5582 5582 5583 5584 5585 5586 5587 5588 5589 5590 5591 5592 5593 5594 5595 5596 5597 5598 5599 5600 5601 5601 5601 5601 5601 5601 5601 5601 5601 5600 5599
5567 5567 5565 5570 5568 5567 5566 5566 5567 5567 5569 5570 5570 5571 5571 5572 5573 5574 5575 5576 5576 5577 5579 5580 5581 5582 5583 5585 5586 5587 5588 5589 5589 5590 5590 5591 5591 5591 5592 5591 5591 5591 5591 5590
5556 5555 5555 5559 5557 5556 5554 5555 5555 5555 5556 5557 5558 5559 5560 5560 5560 5561 5563 5564 5565 5566 5567 5568 5570 5571 5572 5574 5575 5576 5577 5578 5578 5579 5580 5580 5581 5581 5581 5581 5581 5581 5580 5580
5546 5544 5544 5549 5547 5544 5544 5544 5545 5544 5544 5545 5545 5547 5550 5549 5548 5549 5550 5552 5553 5554 5555 5557 5558 5559 5561 5563 5564 5565 5566 5566 5567 5568 5569 5569 5570 5570 5570 5570 5570 5570 5570 5569
5536 5533 5534 5537 5536 5534 5534 5534 5533 5532 5532 5533 5533 5534 5536 5536 5536 5537 5538 5539 5540 5542 5543 5544 5546 5548 5550 5551 5552 5553 5554 5555 5556 5557 5558 5558 5559 5559 5559 5559 5559 5559 5559 5558
5526 5524 5527 5526 5524 5523 5522 5522 5521 5521 5521 5521 5521 5522 5523 5523 5523 5524 5525 5527 5528 5529 5531 5532 5534 5536 5538 5539 5540 5542 5543 5544 5545 5546 5547 5547 5548 5548 5548 5548 5548 5548 5547 5547
5516 5517 5516 5514 5512 5511 5511 5510 5510 5510 5510 5510 5510 5510 5511 5511 5511 5512 5513 5514 5516 5517 5519 5520 5521 5523 5525 5527 5528 5530 5531 5533 5534 5535 5536 5536 5536 5537 5537 5537 5537 5537 5536 5536
5505 5506 5505 5503 5502 5501 5500 5498 5498 5498 5498 5498 5497 5498 5498 5498 5499 5499 5500 5501 5503 5505 5506 5508 5509 5510 5512 5514 5516 5518 5520 5521 5523 5524 5525 5525 5525 5526 5526 5526 5526 5526 5526 5525
5495 5495 5494 5494 5492 5490 5489 5487 5487 5486 5486 5485 5485 5486 5486 5486 5487 5487 5488 5489 5491 5492 5494 5496 5497 5498 5500 5502 5504 5506 5508 5510 5511 5513 5513 5514 5515 5515 5515 5515 5515 5516 5515 5515
5485 5485 5483 5482 5481 5479 5477 5477 5476 5475 5475 5474 5473 5474 5474 5475 5475 5476 5477 5478 5479 5481 5482 5484 5486 5487 5489 5490 5492 5494 5497 5499 5500 5502 5503 5503 5504 5505 5504 5505 5505 5505 5505 5505
5475 5474 5472 5471 5469 5468 5466 5466 5465 5464 5464 5463 5463 5462 5463 5464 5464 5465 5466 5467 5469 5470 5472 5473 5475 5477 5478 5480 5482 5484 5486 5488 5489 5491 5492 5493 5494 5494 5494 5494 5494 5494 5494 5494
5465 5463 5462 5461 5459 5457 5456 5455 5455 5454 5453 5453 5452 5452 5453 5453 5454 5455 5456 5457 5458 5460 5462 5463 5465 5467 5468 5470 5472 5474 5476 5477 5479 5480 5481 5482 5483 5484 5484 5484 5484 5484 5484 5484
5456 5454 5452 5450 5449 5448 5446 5445 5444 5444 5443 5443 5442 5442 5443 5444 5444 5446 5447 5448 5449 5450 5452 5454 5456 5457 5458 5460 5462 5464 5466 5467 5469 5470 5471 5472 5473 5473 5473 5474 5474 5474 5474 5474
5448 5445 5444 5442 5440 5439 5437 5436 5435 5434 5433 5433 5433 5433 5434 5434 5435 5437 5438 5439 5440 5441 5443 5445 5447 5448 5450 5451 5453 5455 5456 5458 5459 5461 5462 5462 5463 5463 5463 5464 5464 5464 5464 5465
5440 5438 5436 5434 5432 5430 5428 5427 5426 5425 5424 5424 5424 5424 5425 5425 5426 5428 5429 5430 5431 5432 5434 5436 5438 5440 5442 5443 5445 5446 5448 5449 5450 5451 5452 5452 5453 5453 5454 5454 5454 5454 5455 5455
5432 5430 5428 5426 5424 5422 5420 5419 5417 5416 5415 5415 5415 5415 5416 5417 5418 5419 5421 5422 5423 5424 5426 5427 5429 5432 5434 5435 5437 5438 5439 5440 5441 5442 5442 5443 5443 5444 5444 5444 5445 5445 5445 5445
5424 5422 5420 5419 5417 5415 5414 5412 5411 5409 5408 5407 5407 5408 5408 5409 5410 5412 5413 5414 5416 5417 5418 5420 5422 5424 5425 5427 5429 5430 5431 5432 5433 5433 5434 5434 5434 5435 5435 5435 5436 5436 5436 5436
5417 5415 5414 5412 5411 5409 5408 5406 5405 5403 5402 5401 5401 5401 5401 5402 5403 5405 5406 5408 5409 5410 5411 5412 5414 5416 5417 5419 5421 5422 5423 5424 5424 5425 5425 5425 5426 5426 5426 5426 5427 5427 5427 5427
5410 5409 5408 5406 5405 5404 5402 5401 5399 5398 5397 5396 5395 5395 5395 5396 5397 5398 5399 5401 5402 5403 5404 5405 5407 5408 5410 5411 5412 5414 5414 5415 5416 5416 5416 5417 5417 5417 5417 5417 5418 5418 5418 5418
5404 5403 5402 5401 5399 5398 5397 5395 5394 5392 5391 5390 5390 5390 5390 5390 5391 5392 5393 5394 5395 5396 5398 5399 5400 5401 5402 5403 5404 5405 5406 5407 5407 5407 5408 5408 5408 5408 5408 5409 5409 5409 5409 5409
5397 5396 5396 5395 5394 5392 5391 5390 5389 5388 5387 5386 5385 5385 5385 5385 5386 5387 5388 5388 5389 5390 5391 5391 5392 5393 5394 5395 5396 5397 5398 5398 5399 5399 5400 5400 5400 5400 5400 5400 5401 5401 5401 5401
5391 5391 5390 5389 5388 5387 5386 5385 5384 5383 5382 5381 5381 5380 5380 5381 5381 5381 5382 5382 5383 5383 5384 5384 5385 5386 5387 5388 5389 5389 5390 5390 5391 5391 5392 5392 5392 5392 5392 5392 5393 5393 5393 5393
5386 5385 5384 5383 5383 5382 5381 5380 5379 5378 5378 5377 5376 5376 5376 5376 5376 5376 5376 5377 5377 5377 5378 5378 5379 5380 5380 5381 5382 5382 5382 5383 5383 5383 5384 5384 5384 5384 5385 5385 5385 5385 5385 5385
5380 5379 5379 5378 5378 5377 5376 5375 5375 5374 5373 5373 5372 5371 5371 5371 5371 5371 5371 5371 5371 5371 5371 5372 5372 5373 5374 5374 5375 5375 5375 5376 5376 5376 5376 5376 5377 5377 5377 5377 5377 5377 5377 5377
5375 5374 5373 5373 5372 5372 5371 5371 5370 5369 5369 5368 5367 5367 5366 5366 5366 5365 5365 5366 5366 5365 5365 5366 5366 5367 5367 5368 5368 5369 5369 5369 5369 5369 5369 5369 5370 5370 5370 5370 5370 5370 5370 5370